Time,TemperatureF,DewpointF,PressureIn,WindDirection,WindDirectionDegrees,WindSpeedMPH,WindSpeedGustMPH,Humidity,HourlyPrecipIn,Conditions,Clouds,dailyrainin,SoftwareType,DateUTC
2013-03-23 00:07:00,37.7,20.3,30.03,North,360,0.0,0.0,49,0.00,,CLR,0.00,VWS V14.01,2013-03-23 04:07:00,
2013-03-23 00:13:00,37.7,19.8,30.03,North,360,0.0,0.0,48,0.00,,CLR,0.00,VWS V14.01,2013-03-23 04:13:00,
2013-03-23 00:18:00,37.6,20.2,30.03,North,360,0.0,0.0,49,0.00,,CLR,0.00,VWS V14.01,2013-03-23 04:18:00,
2013-03-23 00:23:00,37.4,20.1,30.03,North,360,0.0,0.0,49,0.00,,CLR,0.00,VWS V14.01,2013-03-23 04:23:00,
2013-03-23 00:28:00,37.3,20.0,30.03,North,360,0.0,0.0,49,0.00,,CLR,0.00,VWS V14.01,2013-03-23 04:28:00,
2013-03-23 00:33:00,37.1,20.3,30.03,North,360,0.0,0.0,50,0.00,,CLR,0.00,VWS V14.01,2013-03-23 04:33:00,
2013-03-23 00:39:00,37.0,20.2,30.04,North,360,0.0,0.0,50,0.00,,CLR,0.00,VWS V14.01,2013-03-23 04:39:00,
2013-03-23 00:48:00,36.9,19.6,30.03,North,360,0.0,0.0,49,0.00,,CLR,0.00,VWS V14.01,2013-03-23 04:48:00,
2013-03-23 00:53:00,36.8,20.0,30.03,North,360,0.0,0.0,50,0.00,,CLR,0.00,VWS V14.01,2013-03-23 04:53:00,
2013-03-23 00:58:00,36.8,20.0,30.03,North,360,0.0,0.0,50,0.00,,CLR,0.00,VWS V14.01,2013-03-23 04:58:00,
2013-03-23 01:07:00,36.8,20.5,30.03,North,360,0.0,0.0,51,0.00,,CLR,0.00,VWS V14.01,2013-03-23 05:07:00,
2013-03-23 01:13:00,36.5,20.2,30.03,North,360,0.0,0.0,51,0.00,,CLR,0.00,VWS V14.01,2013-03-23 05:13:00,
2013-03-23 01:18:00,36.5,20.2,30.03,North,360,0.0,0.0,51,0.00,,CLR,0.00,VWS V14.01,2013-03-23 05:18:00,
2013-03-23 01:23:00,36.4,19.6,30.03,North,360,0.0,0.0,50,0.00,,CLR,0.00,VWS V14.01,2013-03-23 05:23:00,
2013-03-23 01:28:00,36.4,19.6,30.03,North,360,0.0,0.0,50,0.00,,CLR,0.00,VWS V14.01,2013-03-23 05:28:00,
2013-03-23 01:33:00,36.4,19.6,30.03,North,360,0.0,0.0,50,0.00,,CLR,0.00,VWS V14.01,2013-03-23 05:33:00,
2013-03-23 01:38:00,36.4,19.6,30.03,North,360,0.0,0.0,50,0.00,,CLR,0.00,VWS V14.01,2013-03-23 05:38:00,
2013-03-23 01:43:00,36.4,19.6,30.03,North,360,0.0,0.0,50,0.00,,CLR,0.00,VWS V14.01,2013-03-23 05:43:00,
2013-03-23 01:48:00,36.3,19.5,30.03,North,360,0.0,0.0,50,0.00,,CLR,0.00,VWS V14.01,2013-03-23 05:48:00,
2013-03-23 01:53:00,36.2,19.5,30.03,North,360,0.0,0.0,50,0.00,,CLR,0.00,VWS V14.01,2013-03-23 05:53:00,
2013-03-23 01:58:00,36.2,19.9,30.03,North,360,0.0,0.0,51,0.00,,CLR,0.00,VWS V14.01,2013-03-23 05:58:00,
2013-03-23 02:07:00,36.0,19.8,30.03,North,360,0.0,0.0,51,0.00,,CLR,0.00,VWS V14.01,2013-03-23 06:07:00,
2013-03-23 02:13:00,35.8,19.6,30.02,North,360,0.0,0.0,51,0.00,,CLR,0.00,VWS V14.01,2013-03-23 06:13:00,
2013-03-23 02:18:00,35.6,19.4,30.02,North,360,0.0,0.0,51,0.00,,CLR,0.00,VWS V14.01,2013-03-23 06:18:00,
2013-03-23 02:23:00,35.6,19.9,30.02,North,360,0.0,0.0,52,0.00,,CLR,0.00,VWS V14.01,2013-03-23 06:23:00,
2013-03-23 02:33:00,35.4,19.7,30.02,North,360,0.0,0.0,52,0.00,,CLR,0.00,VWS V14.01,2013-03-23 06:33:00,
2013-03-23 02:38:00,35.2,20.4,30.02,North,360,0.0,0.0,54,0.00,,CLR,0.00,VWS V14.01,2013-03-23 06:38:00,
2013-03-23 02:43:00,35.0,19.8,30.02,North,360,0.0,0.0,53,0.00,,CLR,0.00,VWS V14.01,2013-03-23 06:43:00,
2013-03-23 02:48:00,35.0,19.8,30.03,North,360,0.0,0.0,53,0.00,,CLR,0.00,VWS V14.01,2013-03-23 06:48:00,
2013-03-23 02:53:00,35.1,19.9,30.03,North,360,0.0,0.0,53,0.00,,CLR,0.00,VWS V14.01,2013-03-23 06:53:00,
2013-03-23 02:58:00,35.2,20.0,30.03,North,360,0.0,0.0,53,0.00,,CLR,0.00,VWS V14.01,2013-03-23 06:58:00,
2013-03-23 03:07:00,35.0,19.8,30.03,North,360,0.0,0.0,53,0.00,,CLR,0.00,VWS V14.01,2013-03-23 07:07:00,
2013-03-23 03:13:00,34.9,20.1,30.03,North,360,0.0,0.0,54,0.00,,CLR,0.00,VWS V14.01,2013-03-23 07:13:00,
2013-03-23 03:18:00,34.7,20.9,30.03,North,360,0.0,0.0,57,0.00,,CLR,0.00,VWS V14.01,2013-03-23 07:18:00,
2013-03-23 03:25:00,34.5,20.2,30.03,North,360,0.0,0.0,55,0.00,,CLR,0.00,VWS V14.01,2013-03-23 07:25:00,
2013-03-23 03:33:00,34.0,20.2,30.02,North,360,0.0,0.0,57,0.00,,CLR,0.00,VWS V14.01,2013-03-23 07:33:00,
2013-03-23 03:38:00,34.0,20.2,30.02,North,360,0.0,0.0,57,0.00,,CLR,0.00,VWS V14.01,2013-03-23 07:38:00,
2013-03-23 03:43:00,33.9,20.5,30.02,North,360,0.0,0.0,58,0.00,,CLR,0.00,VWS V14.01,2013-03-23 07:43:00,
2013-03-23 03:48:00,33.8,20.4,30.02,North,360,0.0,0.0,58,0.00,,CLR,0.00,VWS V14.01,2013-03-23 07:48:00,
2013-03-23 03:53:00,33.6,20.7,30.02,North,360,0.0,0.0,59,0.00,,CLR,0.00,VWS V14.01,2013-03-23 07:53:00,
2013-03-23 04:07:00,33.2,20.7,30.03,North,360,0.0,0.0,60,0.00,,CLR,0.00,VWS V14.01,2013-03-23 08:07:00,
2013-03-23 04:13:00,33.2,20.7,30.03,North,360,0.0,0.0,60,0.00,,CLR,0.00,VWS V14.01,2013-03-23 08:13:00,
2013-03-23 04:18:00,33.3,20.8,30.03,North,360,0.0,0.0,60,0.00,,CLR,0.00,VWS V14.01,2013-03-23 08:18:00,
2013-03-23 04:23:00,33.3,20.4,30.03,North,360,0.0,0.0,59,0.00,,CLR,0.00,VWS V14.01,2013-03-23 08:23:00,
2013-03-23 04:28:00,33.4,20.5,30.03,North,360,0.0,0.0,59,0.00,,CLR,0.00,VWS V14.01,2013-03-23 08:28:00,
2013-03-23 04:33:00,33.5,20.2,30.03,North,360,0.0,0.0,58,0.00,,CLR,0.00,VWS V14.01,2013-03-23 08:33:00,
2013-03-23 04:43:00,33.3,20.4,30.02,North,360,0.0,0.0,59,0.00,,CLR,0.00,VWS V14.01,2013-03-23 08:43:00,
2013-03-23 04:48:00,33.5,20.2,30.02,North,360,0.0,0.0,58,0.00,,CLR,0.00,VWS V14.01,2013-03-23 08:48:00,
2013-03-23 04:53:00,33.4,20.5,30.02,North,360,0.0,0.0,59,0.00,,CLR,0.00,VWS V14.01,2013-03-23 08:53:00,
2013-03-23 05:07:00,33.0,20.5,30.03,North,360,0.0,0.0,60,0.00,,CLR,0.00,VWS V14.01,2013-03-23 09:07:00,
2013-03-23 05:13:00,32.7,20.7,30.02,North,360,0.0,0.0,61,0.00,,CLR,0.00,VWS V14.01,2013-03-23 09:13:00,
2013-03-23 05:18:00,32.6,21.0,30.02,North,360,0.0,0.0,62,0.00,,CLR,0.00,VWS V14.01,2013-03-23 09:18:00,
2013-03-23 05:23:00,32.4,20.8,30.02,North,360,0.0,0.0,62,0.00,,CLR,0.00,VWS V14.01,2013-03-23 09:23:00,
2013-03-23 05:28:00,32.3,21.1,30.02,North,360,0.0,0.0,63,0.00,,CLR,0.00,VWS V14.01,2013-03-23 09:28:00,
2013-03-23 05:33:00,32.2,20.6,30.03,North,360,0.0,0.0,62,0.00,,CLR,0.00,VWS V14.01,2013-03-23 09:33:00,
2013-03-23 05:38:00,32.2,20.6,30.02,North,360,0.0,0.0,62,0.00,,CLR,0.00,VWS V14.01,2013-03-23 09:38:00,
2013-03-23 05:48:00,32.0,20.8,30.02,North,360,0.0,0.0,63,0.00,,CLR,0.00,VWS V14.01,2013-03-23 09:48:00,
2013-03-23 05:58:00,31.9,20.7,30.02,North,360,0.0,0.0,63,0.00,,CLR,0.00,VWS V14.01,2013-03-23 09:58:00,
2013-03-23 06:07:00,32.0,20.8,30.03,North,360,0.0,0.0,63,0.00,,CLR,0.00,VWS V14.01,2013-03-23 10:07:00,
2013-03-23 06:13:00,31.9,21.1,30.03,North,360,0.0,0.0,64,0.00,,CLR,0.00,VWS V14.01,2013-03-23 10:13:00,
2013-03-23 06:18:00,31.9,21.1,30.03,North,360,0.0,0.0,64,0.00,,CLR,0.00,VWS V14.01,2013-03-23 10:18:00,
2013-03-23 06:23:00,31.9,21.1,30.03,North,360,0.0,0.0,64,0.00,,CLR,0.00,VWS V14.01,2013-03-23 10:23:00,
2013-03-23 06:28:00,31.9,21.1,30.03,North,360,0.0,0.0,64,0.00,,CLR,0.00,VWS V14.01,2013-03-23 10:28:00,
2013-03-23 06:33:00,31.9,21.1,30.03,North,360,0.0,0.0,64,0.00,,CLR,0.00,VWS V14.01,2013-03-23 10:33:00,
2013-03-23 06:43:00,31.9,21.1,30.03,North,360,0.0,0.0,64,0.00,,CLR,0.00,VWS V14.01,2013-03-23 10:43:00,
2013-03-23 06:48:00,31.8,21.0,30.03,North,360,0.0,0.0,64,0.00,,CLR,0.00,VWS V14.01,2013-03-23 10:48:00,
2013-03-23 06:53:00,31.9,20.7,30.04,North,360,0.0,0.0,63,0.00,,CLR,0.00,VWS V14.01,2013-03-23 10:53:00,
2013-03-23 06:58:00,31.9,21.1,30.04,North,360,0.0,0.0,64,0.00,,CLR,0.00,VWS V14.01,2013-03-23 10:58:00,
2013-03-23 07:07:00,31.9,21.1,30.04,North,360,0.0,0.0,64,0.00,,CLR,0.00,VWS V14.01,2013-03-23 11:07:00,
2013-03-23 07:13:00,31.9,21.5,30.04,North,360,0.0,0.0,65,0.00,,CLR,0.00,VWS V14.01,2013-03-23 11:13:00,
2013-03-23 07:18:00,31.7,21.3,30.04,North,360,0.0,0.0,65,0.00,,CLR,0.00,VWS V14.01,2013-03-23 11:18:00,
2013-03-23 07:23:00,31.7,21.3,30.04,North,360,0.0,0.0,65,0.00,,CLR,0.00,VWS V14.01,2013-03-23 11:23:00,
2013-03-23 07:28:00,31.6,21.6,30.04,North,360,0.0,0.0,66,0.00,,CLR,0.00,VWS V14.01,2013-03-23 11:28:00,
2013-03-23 07:33:00,31.5,21.5,30.05,North,360,0.0,0.0,66,0.00,,CLR,0.00,VWS V14.01,2013-03-23 11:33:00,
2013-03-23 07:38:00,31.5,21.5,30.05,North,360,0.0,0.0,66,0.00,,CLR,0.00,VWS V14.01,2013-03-23 11:38:00,
2013-03-23 07:43:00,31.6,21.2,30.05,North,360,0.0,0.0,65,0.00,,CLR,0.00,VWS V14.01,2013-03-23 11:43:00,
2013-03-23 07:48:00,31.7,21.3,30.05,North,360,0.0,0.0,65,0.00,,CLR,0.00,VWS V14.01,2013-03-23 11:48:00,
2013-03-23 07:53:00,32.0,22.0,30.05,North,360,0.0,0.0,66,0.00,,CLR,0.00,VWS V14.01,2013-03-23 11:53:00,
2013-03-23 08:07:00,32.7,21.9,30.05,North,360,0.0,0.0,64,0.00,,CLR,0.00,VWS V14.01,2013-03-23 12:07:00,
2013-03-23 08:13:00,32.8,22.0,30.05,North,360,0.0,0.0,64,0.00,,CLR,0.00,VWS V14.01,2013-03-23 12:13:00,
2013-03-23 08:25:00,35.1,22.9,30.05,North,360,0.0,0.0,61,0.00,,CLR,0.00,VWS V14.01,2013-03-23 12:25:00,
2013-03-23 08:33:00,37.0,23.5,30.05,North,360,0.0,0.0,58,0.00,,CLR,0.00,VWS V14.01,2013-03-23 12:33:00,
2013-03-23 08:38:00,37.7,21.8,30.05,North,360,0.0,0.0,52,0.00,,CLR,0.00,VWS V14.01,2013-03-23 12:38:00,
2013-03-23 08:43:00,38.1,20.7,30.05,North,360,0.0,0.0,49,0.00,,CLR,0.00,VWS V14.01,2013-03-23 12:43:00,
2013-03-23 08:53:00,38.7,20.7,30.05,North,360,0.0,0.0,48,0.00,,CLR,0.00,VWS V14.01,2013-03-23 12:53:00,
2013-03-23 08:58:00,38.8,20.8,30.05,North,360,0.0,0.0,48,0.00,,CLR,0.00,VWS V14.01,2013-03-23 12:58:00,
2013-03-23 09:07:00,39.1,20.6,30.05,North,360,0.0,0.0,47,0.00,,CLR,0.00,VWS V14.01,2013-03-23 13:07:00,
2013-03-23 09:13:00,38.9,20.4,30.05,North,360,0.0,0.0,47,0.00,,CLR,0.00,VWS V14.01,2013-03-23 13:13:00,
2013-03-23 09:18:00,39.8,21.2,30.05,North,360,0.0,0.0,47,0.00,,CLR,0.00,VWS V14.01,2013-03-23 13:18:00,
2013-03-23 09:23:00,39.8,20.7,30.05,North,360,0.0,0.0,46,0.00,,CLR,0.00,VWS V14.01,2013-03-23 13:23:00,
2013-03-23 09:28:00,40.0,20.9,30.05,North,360,0.0,0.0,46,0.00,,CLR,0.00,VWS V14.01,2013-03-23 13:28:00,
2013-03-23 09:33:00,39.9,20.2,30.05,North,360,0.0,0.0,45,0.00,,CLR,0.00,VWS V14.01,2013-03-23 13:33:00,
2013-03-23 09:38:00,40.1,21.0,30.05,North,360,0.0,0.0,46,0.00,,CLR,0.00,VWS V14.01,2013-03-23 13:38:00,
2013-03-23 09:48:00,40.1,20.4,30.05,North,360,0.0,0.0,45,0.00,,CLR,0.00,VWS V14.01,2013-03-23 13:48:00,
2013-03-23 09:53:00,40.8,21.1,30.06,North,360,0.0,0.0,45,0.00,,CLR,0.00,VWS V14.01,2013-03-23 13:53:00,
2013-03-23 09:58:00,41.1,21.3,30.06,North,360,0.0,0.0,45,0.00,,CLR,0.00,VWS V14.01,2013-03-23 13:58:00,
2013-03-23 10:07:00,41.3,21.0,30.05,North,360,0.0,0.0,44,0.00,,CLR,0.00,VWS V14.01,2013-03-23 14:07:00,
2013-03-23 10:13:00,41.5,20.6,30.06,North,360,0.0,0.0,43,0.00,,CLR,0.00,VWS V14.01,2013-03-23 14:13:00,
2013-03-23 10:18:00,41.5,20.6,30.06,North,360,0.0,0.0,43,0.00,,CLR,0.00,VWS V14.01,2013-03-23 14:18:00,
2013-03-23 10:23:00,41.7,20.7,30.06,North,360,0.0,0.0,43,0.00,,CLR,0.00,VWS V14.01,2013-03-23 14:23:00,
2013-03-23 10:33:00,42.3,20.7,30.06,North,360,0.0,0.0,42,0.00,,CLR,0.00,VWS V14.01,2013-03-23 14:33:00,
2013-03-23 10:38:00,42.5,20.9,30.06,North,360,0.0,0.0,42,0.00,,CLR,0.00,VWS V14.01,2013-03-23 14:38:00,
2013-03-23 10:43:00,42.9,21.2,30.06,North,360,0.0,0.0,42,0.00,,CLR,0.00,VWS V14.01,2013-03-23 14:43:00,
2013-03-23 10:48:00,42.9,20.6,30.06,North,360,0.0,0.0,41,0.00,,CLR,0.00,VWS V14.01,2013-03-23 14:48:00,
2013-03-23 10:53:00,42.7,20.5,30.06,North,360,0.0,0.0,41,0.00,,CLR,0.00,VWS V14.01,2013-03-23 14:53:00,
2013-03-23 11:07:00,43.2,21.5,30.06,North,360,0.0,0.0,42,0.00,,FEW250,0.00,VWS V14.01,2013-03-23 15:07:00,
2013-03-23 11:13:00,42.7,20.5,30.05,North,360,0.0,0.0,41,0.00,,FEW250,0.00,VWS V14.01,2013-03-23 15:13:00,
2013-03-23 11:18:00,43.8,21.4,30.05,North,360,0.0,0.0,41,0.00,,FEW250,0.00,VWS V14.01,2013-03-23 15:18:00,
2013-03-23 11:23:00,43.7,21.4,30.04,North,360,0.0,0.0,41,0.00,,FEW250,0.00,VWS V14.01,2013-03-23 15:23:00,
2013-03-23 11:28:00,43.7,21.4,30.04,North,360,0.0,0.0,41,0.00,,FEW250,0.00,VWS V14.01,2013-03-23 15:28:00,
2013-03-23 11:33:00,44.2,21.2,30.03,North,360,0.0,0.0,40,0.00,,FEW250,0.00,VWS V14.01,2013-03-23 15:33:00,
2013-03-23 11:38:00,45.0,21.3,30.03,North,360,0.0,0.0,39,0.00,,FEW250,0.00,VWS V14.01,2013-03-23 15:38:00,
2013-03-23 11:43:00,44.6,20.9,30.03,North,360,0.0,0.0,39,0.00,,FEW250,0.00,VWS V14.01,2013-03-23 15:43:00,
2013-03-23 11:48:00,44.8,21.7,30.03,North,360,0.0,0.0,40,0.00,,FEW250,0.00,VWS V14.01,2013-03-23 15:48:00,
2013-03-23 11:53:00,45.0,22.5,30.02,North,360,0.0,0.0,41,0.00,,FEW250,0.00,VWS V14.01,2013-03-23 15:53:00,
2013-03-23 11:58:00,45.5,23.6,30.02,North,360,0.0,0.0,42,0.00,,BKN250,0.00,VWS V14.01,2013-03-23 15:58:00,
2013-03-23 12:07:00,45.8,22.6,30.02,North,360,0.0,0.0,40,0.00,,BKN250,0.00,VWS V14.01,2013-03-23 16:07:00,
2013-03-23 12:13:00,45.8,21.3,30.02,North,360,0.0,0.0,37,0.00,,BKN250,0.00,VWS V14.01,2013-03-23 16:13:00,
2013-03-23 12:18:00,45.5,21.0,30.01,North,360,0.0,0.0,37,0.00,,BKN250,0.00,VWS V14.01,2013-03-23 16:18:00,
2013-03-23 12:23:00,46.1,21.6,30.01,North,360,0.0,0.0,37,0.00,,BKN250,0.00,VWS V14.01,2013-03-23 16:23:00,
2013-03-23 12:28:00,46.9,21.6,30.01,North,360,0.0,0.0,36,0.00,,BKN250,0.00,VWS V14.01,2013-03-23 16:28:00,
2013-03-23 12:33:00,47.0,22.4,30.00,North,360,0.0,0.0,37,0.00,,BKN250,0.00,VWS V14.01,2013-03-23 16:33:00,
2013-03-23 12:38:00,46.3,21.1,30.00,North,360,0.0,0.0,36,0.00,,BKN250,0.00,VWS V14.01,2013-03-23 16:38:00,
2013-03-23 12:43:00,46.3,21.1,30.00,North,360,0.0,0.0,36,0.00,,BKN250,0.00,VWS V14.01,2013-03-23 16:43:00,
2013-03-23 12:48:00,46.9,21.6,30.00,North,360,0.0,0.0,36,0.00,,BKN250,0.00,VWS V14.01,2013-03-23 16:48:00,
2013-03-23 12:53:00,46.9,22.3,30.00,North,360,0.0,0.0,37,0.00,,BKN250,0.00,VWS V14.01,2013-03-23 16:53:00,
2013-03-23 12:58:00,46.9,20.2,30.00,North,360,0.0,0.0,34,0.00,,BKN250,0.00,VWS V14.01,2013-03-23 16:58:00,
2013-03-23 13:07:00,47.5,22.1,29.99,North,360,0.0,0.0,36,0.00,,BKN250,0.00,VWS V14.01,2013-03-23 17:07:00,
2013-03-23 13:13:00,48.1,22.0,30.00,North,360,0.0,0.0,35,0.00,,BKN250,0.00,VWS V14.01,2013-03-23 17:13:00,
2013-03-23 13:18:00,47.3,20.6,29.99,North,360,0.0,0.0,34,0.00,,BKN250,0.00,VWS V14.01,2013-03-23 17:18:00,
2013-03-23 13:25:00,47.8,21.7,29.99,North,360,0.0,0.0,35,0.00,,BKN250,0.00,VWS V14.01,2013-03-23 17:25:00,
2013-03-23 13:33:00,49.1,22.1,29.98,North,360,0.0,0.0,34,0.00,,BKN250,0.00,VWS V14.01,2013-03-23 17:33:00,
2013-03-23 13:38:00,48.8,21.9,29.99,North,360,0.0,0.0,34,0.00,,BKN250,0.00,VWS V14.01,2013-03-23 17:38:00,
2013-03-23 13:43:00,48.6,21.0,29.98,North,360,0.0,0.0,33,0.00,,BKN250,0.00,VWS V14.01,2013-03-23 17:43:00,
2013-03-23 13:53:00,49.1,21.4,29.98,North,360,0.0,0.0,33,0.00,,BKN250,0.00,VWS V14.01,2013-03-23 17:53:00,
2013-03-23 13:58:00,49.1,21.4,29.97,North,360,0.0,0.0,33,0.00,,BKN250,0.00,VWS V14.01,2013-03-23 17:58:00,
2013-03-23 14:03:00,50.4,22.6,29.97,North,360,0.0,0.0,33,0.00,,BKN250,0.00,VWS V14.01,2013-03-23 18:03:00,
2013-03-23 14:08:00,49.5,21.0,29.97,North,360,0.0,0.0,32,0.00,,BKN250,0.00,VWS V14.01,2013-03-23 18:08:00,
2013-03-23 14:13:00,49.7,21.9,29.96,North,360,0.0,0.0,33,0.00,,BKN250,0.00,VWS V14.01,2013-03-23 18:13:00,
2013-03-23 14:18:00,49.9,21.4,29.96,North,360,0.0,0.0,32,0.00,,BKN250,0.00,VWS V14.01,2013-03-23 18:18:00,
2013-03-23 14:23:00,50.7,22.0,29.96,North,360,0.0,0.0,32,0.00,,BKN250,0.00,VWS V14.01,2013-03-23 18:23:00,
2013-03-23 14:28:00,50.3,21.7,29.96,North,360,0.0,0.0,32,0.00,,BKN250,0.00,VWS V14.01,2013-03-23 18:28:00,
2013-03-23 14:33:00,51.5,21.1,29.95,North,360,0.0,0.0,30,0.00,,BKN250,0.00,VWS V14.01,2013-03-23 18:33:00,
2013-03-23 14:43:00,51.5,22.0,29.95,North,360,0.0,0.0,31,0.00,,BKN250,0.00,VWS V14.01,2013-03-23 18:43:00,
2013-03-23 14:48:00,52.1,21.7,29.95,North,360,0.0,0.0,30,0.00,,BKN250,0.00,VWS V14.01,2013-03-23 18:48:00,
2013-03-23 14:53:00,52.8,23.1,29.95,North,360,0.0,0.0,31,0.00,,BKN250,0.00,VWS V14.01,2013-03-23 18:53:00,
2013-03-23 14:58:00,51.4,20.2,29.95,North,360,0.0,0.0,29,0.00,,SCT250,0.00,VWS V14.01,2013-03-23 18:58:00,
2013-03-23 15:07:00,51.4,22.7,29.95,North,360,0.0,0.0,32,0.00,,SCT250,0.00,VWS V14.01,2013-03-23 19:07:00,
2013-03-23 15:13:00,52.3,21.8,29.95,North,360,0.0,0.0,30,0.00,,SCT250,0.00,VWS V14.01,2013-03-23 19:13:00,
2013-03-23 15:19:00,52.6,21.2,29.94,North,360,0.0,0.0,29,0.00,,SCT250,0.00,VWS V14.01,2013-03-23 19:19:00,
2013-03-23 15:28:00,52.1,20.8,29.95,North,360,0.0,0.0,29,0.00,,SCT250,0.00,VWS V14.01,2013-03-23 19:28:00,
2013-03-23 15:33:00,53.3,21.9,29.94,North,360,0.0,0.0,29,0.00,,SCT250,0.00,VWS V14.01,2013-03-23 19:33:00,
2013-03-23 15:38:00,52.7,20.5,29.94,North,360,0.0,0.0,28,0.00,,SCT250,0.00,VWS V14.01,2013-03-23 19:38:00,
2013-03-23 15:48:00,52.2,21.8,29.94,North,360,0.0,0.0,30,0.00,,SCT250,0.00,VWS V14.01,2013-03-23 19:48:00,
2013-03-23 15:53:00,53.1,21.7,29.94,North,360,0.0,0.0,29,0.00,,SCT250,0.00,VWS V14.01,2013-03-23 19:53:00,
2013-03-23 15:58:00,53.0,21.6,29.93,North,360,0.0,0.0,29,0.00,,SCT250,0.00,VWS V14.01,2013-03-23 19:58:00,
2013-03-23 16:07:00,52.3,20.1,29.93,North,360,0.0,0.0,28,0.00,,SCT250,0.00,VWS V14.01,2013-03-23 20:07:00,
2013-03-23 16:13:00,53.2,20.0,29.93,North,360,0.0,0.0,27,0.00,,SCT250,0.00,VWS V14.01,2013-03-23 20:13:00,
2013-03-23 16:23:00,53.6,20.3,29.93,North,360,0.0,0.0,27,0.00,,SCT250,0.00,VWS V14.01,2013-03-23 20:23:00,
2013-03-23 16:33:00,53.0,19.8,29.93,North,360,0.0,0.0,27,0.00,,SCT250,0.00,VWS V14.01,2013-03-23 20:33:00,
2013-03-23 16:38:00,53.1,19.9,29.93,North,360,0.0,0.0,27,0.00,,SCT250,0.00,VWS V14.01,2013-03-23 20:38:00,
2013-03-23 16:48:00,52.6,20.4,29.93,North,360,0.0,0.0,28,0.00,,SCT250,0.00,VWS V14.01,2013-03-23 20:48:00,
2013-03-23 16:53:00,52.5,19.4,29.93,North,360,0.0,0.0,27,0.00,,SCT250,0.00,VWS V14.01,2013-03-23 20:53:00,
2013-03-23 16:58:00,52.7,19.5,29.93,North,360,0.0,0.0,27,0.00,,SCT250,0.00,VWS V14.01,2013-03-23 20:58:00,
2013-03-23 17:07:00,52.6,19.5,29.93,North,360,0.0,0.0,27,0.00,,SCT250,0.00,VWS V14.01,2013-03-23 21:07:00,
2013-03-23 17:13:00,52.4,19.3,29.93,North,360,0.0,0.0,27,0.00,,SCT250,0.00,VWS V14.01,2013-03-23 21:13:00,
2013-03-23 17:18:00,52.9,19.7,29.93,North,360,0.0,0.0,27,0.00,,SCT250,0.00,VWS V14.01,2013-03-23 21:18:00,
2013-03-23 17:25:00,52.6,19.5,29.93,North,360,0.0,0.0,27,0.00,,SCT250,0.00,VWS V14.01,2013-03-23 21:25:00,
2013-03-23 17:33:00,52.7,19.5,29.92,North,360,0.0,0.0,27,0.00,,SCT250,0.00,VWS V14.01,2013-03-23 21:33:00,
2013-03-23 17:38:00,52.3,19.2,29.92,North,360,0.0,0.0,27,0.00,,SCT250,0.00,VWS V14.01,2013-03-23 21:38:00,
2013-03-23 17:48:00,52.6,20.4,29.93,North,360,0.0,0.0,28,0.00,,SCT250,0.00,VWS V14.01,2013-03-23 21:48:00,
2013-03-23 17:53:00,52.8,20.5,29.93,North,360,0.0,0.0,28,0.00,,SCT250,0.00,VWS V14.01,2013-03-23 21:53:00,
2013-03-23 17:58:00,52.2,20.0,29.93,North,360,0.0,0.0,28,0.00,,SCT250,0.00,VWS V14.01,2013-03-23 21:58:00,
2013-03-23 18:08:00,52.3,20.1,29.93,North,360,0.0,0.0,28,0.00,,SCT250,0.00,VWS V14.01,2013-03-23 22:08:00,
2013-03-23 18:13:00,52.4,20.2,29.93,North,360,0.0,0.0,28,0.00,,SCT250,0.00,VWS V14.01,2013-03-23 22:13:00,
2013-03-23 18:18:00,52.3,19.2,29.93,North,360,0.0,0.0,27,0.00,,SCT250,0.00,VWS V14.01,2013-03-23 22:18:00,
2013-03-23 18:23:00,52.3,20.1,29.93,North,360,0.0,0.0,28,0.00,,SCT250,0.00,VWS V14.01,2013-03-23 22:23:00,
2013-03-23 18:28:00,52.4,20.2,29.93,North,360,0.0,0.0,28,0.00,,SCT250,0.00,VWS V14.01,2013-03-23 22:28:00,
2013-03-23 18:33:00,52.2,20.0,29.93,North,360,0.0,0.0,28,0.00,,SCT250,0.00,VWS V14.01,2013-03-23 22:33:00,
2013-03-23 18:38:00,52.2,20.9,29.93,North,360,0.0,0.0,29,0.00,,SCT250,0.00,VWS V14.01,2013-03-23 22:38:00,
2013-03-23 18:43:00,52.0,20.7,29.93,North,360,0.0,0.0,29,0.00,,SCT250,0.00,VWS V14.01,2013-03-23 22:43:00,
2013-03-23 18:48:00,51.8,20.6,29.93,North,360,0.0,0.0,29,0.00,,SCT250,0.00,VWS V14.01,2013-03-23 22:48:00,
2013-03-23 18:53:00,51.7,21.3,29.93,North,360,0.0,0.0,30,0.00,,SCT250,0.00,VWS V14.01,2013-03-23 22:53:00,
2013-03-23 18:58:00,51.4,21.1,29.93,North,360,0.0,0.0,30,0.00,,FEW250,0.00,VWS V14.01,2013-03-23 22:58:00,
2013-03-23 19:07:00,51.5,20.3,29.93,North,360,0.0,0.0,29,0.00,,FEW250,0.00,VWS V14.01,2013-03-23 23:07:00,
2013-03-23 19:13:00,51.3,21.0,29.93,North,360,0.0,0.0,30,0.00,,FEW250,0.00,VWS V14.01,2013-03-23 23:13:00,
2013-03-23 19:18:00,51.1,21.6,29.94,North,360,0.0,0.0,31,0.00,,FEW250,0.00,VWS V14.01,2013-03-23 23:18:00,
2013-03-23 19:23:00,50.8,21.4,29.94,North,360,0.0,0.0,31,0.00,,FEW250,0.00,VWS V14.01,2013-03-23 23:23:00,
2013-03-23 19:28:00,50.5,21.9,29.94,North,360,0.0,0.0,32,0.00,,FEW250,0.00,VWS V14.01,2013-03-23 23:28:00,
2013-03-23 19:33:00,50.5,21.1,29.94,North,360,0.0,0.0,31,0.00,,FEW250,0.00,VWS V14.01,2013-03-23 23:33:00,
2013-03-23 19:38:00,50.3,21.7,29.94,North,360,0.0,0.0,32,0.00,,FEW250,0.00,VWS V14.01,2013-03-23 23:38:00,
2013-03-23 19:43:00,50.1,22.3,29.94,North,360,0.0,0.0,33,0.00,,FEW250,0.00,VWS V14.01,2013-03-23 23:43:00,
2013-03-23 19:48:00,50.0,22.2,29.94,North,360,0.0,0.0,33,0.00,,FEW250,0.00,VWS V14.01,2013-03-23 23:48:00,
2013-03-23 19:53:00,49.8,22.0,29.94,North,360,0.0,0.0,33,0.00,,FEW250,0.00,VWS V14.01,2013-03-23 23:53:00,
2013-03-23 19:58:00,49.8,22.0,29.95,North,360,0.0,0.0,33,0.00,,FEW250,0.00,VWS V14.01,2013-03-23 23:58:00,
2013-03-23 20:07:00,49.7,21.9,29.95,North,360,0.0,0.0,33,0.00,,FEW250,0.00,VWS V14.01,2013-03-24 00:07:00,
2013-03-23 20:13:00,49.7,21.9,29.96,North,360,0.0,0.0,33,0.00,,FEW250,0.00,VWS V14.01,2013-03-24 00:13:00,
2013-03-23 20:18:00,49.6,22.6,29.96,North,360,0.0,0.0,34,0.00,,FEW250,0.00,VWS V14.01,2013-03-24 00:18:00,
2013-03-23 20:23:00,49.3,22.3,29.96,North,360,0.0,0.0,34,0.00,,FEW250,0.00,VWS V14.01,2013-03-24 00:23:00,
2013-03-23 20:28:00,49.4,21.7,29.96,North,360,0.0,0.0,33,0.00,,FEW250,0.00,VWS V14.01,2013-03-24 00:28:00,
2013-03-23 20:38:00,49.2,21.5,29.97,North,360,0.0,0.0,33,0.00,,FEW250,0.00,VWS V14.01,2013-03-24 00:38:00,
2013-03-23 20:43:00,49.1,20.6,29.97,North,360,0.0,0.0,32,0.00,,FEW250,0.00,VWS V14.01,2013-03-24 00:43:00,
2013-03-23 20:48:00,49.0,19.8,29.97,North,360,0.0,0.0,31,0.00,,FEW250,0.00,VWS V14.01,2013-03-24 00:48:00,
2013-03-23 20:53:00,48.9,20.5,29.97,North,360,0.0,0.0,32,0.00,,FEW250,0.00,VWS V14.01,2013-03-24 00:53:00,
2013-03-23 21:07:00,48.8,19.6,29.98,North,360,0.0,0.0,31,0.00,,FEW250,0.00,VWS V14.01,2013-03-24 01:07:00,
2013-03-23 21:13:00,48.2,21.4,29.98,North,360,0.0,0.0,34,0.00,,FEW250,0.00,VWS V14.01,2013-03-24 01:13:00,
2013-03-23 21:18:00,48.0,21.9,29.99,North,360,0.0,0.0,35,0.00,,FEW250,0.00,VWS V14.01,2013-03-24 01:18:00,
2013-03-23 21:25:00,47.7,21.6,29.99,North,360,0.0,0.0,35,0.00,,FEW250,0.00,VWS V14.01,2013-03-24 01:25:00,
2013-03-23 21:33:00,47.3,22.0,29.99,North,360,0.0,0.0,36,0.00,,FEW250,0.00,VWS V14.01,2013-03-24 01:33:00,
2013-03-23 21:38:00,47.2,22.6,29.98,North,360,0.0,0.0,37,0.00,,FEW250,0.00,VWS V14.01,2013-03-24 01:38:00,
2013-03-23 21:43:00,47.2,21.9,29.98,North,360,0.0,0.0,36,0.00,,FEW250,0.00,VWS V14.01,2013-03-24 01:43:00,
2013-03-23 21:53:00,46.9,21.6,29.99,North,360,0.0,0.0,36,0.00,,FEW250,0.00,VWS V14.01,2013-03-24 01:53:00,
2013-03-23 21:58:00,46.9,21.6,29.99,North,360,0.0,0.0,36,0.00,,SCT250,0.00,VWS V14.01,2013-03-24 01:58:00,
2013-03-23 22:07:00,46.7,22.1,29.99,North,360,0.0,0.0,37,0.00,,SCT250,0.00,VWS V14.01,2013-03-24 02:07:00,
2013-03-23 22:13:00,46.5,21.9,29.99,North,360,0.0,0.0,37,0.00,,SCT250,0.00,VWS V14.01,2013-03-24 02:13:00,
2013-03-23 22:18:00,46.4,21.9,29.99,North,360,0.0,0.0,37,0.00,,SCT250,0.00,VWS V14.01,2013-03-24 02:18:00,
2013-03-23 22:23:00,46.3,21.1,29.99,North,360,0.0,0.0,36,0.00,,SCT250,0.00,VWS V14.01,2013-03-24 02:23:00,
2013-03-23 22:28:00,46.4,21.2,29.99,North,360,0.0,0.0,36,0.00,,SCT250,0.00,VWS V14.01,2013-03-24 02:28:00,
2013-03-23 22:33:00,46.3,21.8,30.00,North,360,0.0,0.0,37,0.00,,SCT250,0.00,VWS V14.01,2013-03-24 02:33:00,
2013-03-23 22:43:00,45.9,21.4,30.00,North,360,0.0,0.0,37,0.00,,SCT250,0.00,VWS V14.01,2013-03-24 02:43:00,
2013-03-23 22:48:00,45.8,21.3,30.00,North,360,0.0,0.0,37,0.00,,SCT250,0.00,VWS V14.01,2013-03-24 02:48:00,
2013-03-23 22:53:00,45.3,23.4,30.00,North,360,0.0,0.0,42,0.00,,SCT250,0.00,VWS V14.01,2013-03-24 02:53:00,
2013-03-23 22:58:00,45.1,23.2,30.00,North,360,0.0,0.0,42,0.00,,SCT250,0.00,VWS V14.01,2013-03-24 02:58:00,
2013-03-23 23:07:00,44.8,22.3,30.00,North,360,0.0,0.0,41,0.00,,SCT250,0.00,VWS V14.01,2013-03-24 03:07:00,
2013-03-23 23:13:00,44.5,22.1,30.00,North,360,0.0,0.0,41,0.00,,SCT250,0.00,VWS V14.01,2013-03-24 03:13:00,
2013-03-23 23:18:00,44.2,25.8,30.00,North,360,0.0,0.0,48,0.00,,SCT250,0.00,VWS V14.01,2013-03-24 03:18:00,
2013-03-23 23:23:00,44.1,25.2,30.01,North,360,0.0,0.0,47,0.00,,SCT250,0.00,VWS V14.01,2013-03-24 03:23:00,
2013-03-23 23:28:00,44.1,24.6,30.01,North,360,0.0,0.0,46,0.00,,SCT250,0.00,VWS V14.01,2013-03-24 03:28:00,
2013-03-23 23:33:00,43.8,23.2,30.01,North,360,0.0,0.0,44,0.00,,SCT250,0.00,VWS V14.01,2013-03-24 03:33:00,
2013-03-23 23:38:00,43.6,22.5,30.01,North,360,0.0,0.0,43,0.00,,SCT250,0.00,VWS V14.01,2013-03-24 03:38:00,
2013-03-23 23:43:00,43.3,23.9,30.01,North,360,0.0,0.0,46,0.00,,SCT250,0.00,VWS V14.01,2013-03-24 03:43:00,
2013-03-23 23:48:00,43.1,24.3,30.01,North,360,0.0,0.0,47,0.00,,SCT250,0.00,VWS V14.01,2013-03-24 03:48:00,
2013-03-23 23:53:00,42.9,25.6,30.01,North,360,0.0,0.0,50,0.00,,SCT250,0.00,VWS V14.01,2013-03-24 03:53:00,
2013-03-23 23:58:00,42.6,25.4,30.01,North,360,0.0,0.0,50,0.00,,BKN250,0.00,VWS V14.01,2013-03-24 03:58:00,